JR0ZFO-13 Weather Reports


time (UTC)temp
C
wind
direction
speed
KPH
gust
KPH
rain 1hr
cm
rain 24hr
cm
rain mn
cm
humidity
%
barometer
mb
20260509185827 5 180 0.0 0.0 0.00 0.00 0.00 81 1023.3
20260509185325 5 180 0.0 0.0 0.00 0.00 0.00 81 1023.3
20260509184827 5 180 0.0 0.0 0.00 0.00 0.00 81 1023.3
20260509184346 5 179 0.0 0.0 0.00 0.00 0.00 81 1023.2
20260509183823 5 180 0.0 0.0 0.00 0.00 0.00 82 1023.2
20260509183341 5 180 0.0 0.0 0.00 0.00 0.00 83 1023.2
20260509182818 5 179 0.0 0.0 0.00 0.00 0.00 82 1023.1
20260509182337 5 179 0.0 0.0 0.00 0.00 0.00 82 1022.9
20260509181814 5 179 0.0 0.0 0.00 0.00 0.00 82 1023.0
20260509181312 5 179 0.0 0.0 0.00 0.00 0.00 82 1023.0
20260509180832 5 179 0.0 0.0 0.00 0.00 0.00 81 1022.9
20260509180330 5 179 0.0 0.0 0.00 0.00 0.00 82 1022.9
20260509175828 5 179 0.0 0.0 0.00 0.00 0.00 81 1022.8
20260509175326 5 179 0.0 0.0 0.00 0.00 0.00 80 1022.8
20260509174846 5 179 0.0 0.0 0.00 0.00 0.00 80 1022.7
20260509174343 5 179 0.0 0.0 0.00 0.00 0.00 80 1022.7
20260509173820 5 179 0.0 0.0 0.00 0.00 0.00 79 1022.6
20260509173340 5 179 0.0 0.0 0.00 0.00 0.00 78 1022.6
20260509172838 6 179 0.0 0.0 0.00 0.00 0.00 78 1022.5
20260509172335 6 179 0.0 0.0 0.00 0.00 0.00 77 1022.5
20260509171812 6 179 0.0 1.6 0.00 0.00 0.00 77 1022.4
20260509171331 6 179 0.0 1.6 0.00 0.00 0.00 78 1022.4
20260509170829 6 50 0.0 0.0 0.00 0.00 0.00 79 1022.3
20260509170325 5 50 0.0 0.0 0.00 0.00 0.00 80 1022.3
20260509165823 6 50 0.0 0.0 0.00 0.00 0.00 79 1022.2
20260509165342 6 50 0.0 0.0 0.00 0.00 0.00 78 1022.1
20260509164818 6 50 0.0 0.0 0.00 0.00 0.00 79 1022.1
20260509164337 6 50 0.0 0.0 0.00 0.00 0.00 79 1022.0
20260509163814 6 50 0.0 0.0 0.00 0.00 0.00 80 1022.0
20260509163333 6 50 0.0 0.0 0.00 0.00 0.00 78 1022.0
20260509162833 6 50 0.0 0.0 0.00 0.00 0.00 78 1021.9
20260509162332 6 50 0.0 0.0 0.00 0.00 0.00 79 1022.0
20260509161813 6 50 0.0 0.0 0.00 0.00 0.00 79 1022.1
20260509161349 6 50 0.0 0.0 0.00 0.00 0.00 78 1022.1
20260509160847 6 50 0.0 0.0 0.00 0.00 0.00 79 1022.2
20260509160323 6 50 0.0 0.0 0.00 0.00 0.00 79 1022.1
20260509155826 6 50 0.0 0.0 0.00 0.00 0.00 79 1022.1
20260509155344 6 50 0.0 0.0 0.00 0.00 0.00 79 1022.0
20260509154820 7 50 0.0 0.0 0.00 0.00 0.00 79 1022.0
20260509154316 7 50 0.0 1.6 0.00 0.00 0.00 78 1021.9
20260509153813 7 50 0.0 1.6 0.00 0.00 0.00 78 1022.0
20260509153327 7 47 0.0 0.0 0.00 0.00 0.00 77 1022.0
20260509152829 7 46 0.0 0.0 0.00 0.00 0.00 79 1022.0
20260509152347 7 47 0.0 0.0 0.00 0.00 0.00 78 1022.0
20260509151824 7 47 0.0 0.0 0.00 0.00 0.00 77 1022.0
20260509151323 7 46 0.0 0.0 0.00 0.00 0.00 77 1022.0
20260509150821 7 47 0.0 0.0 0.00 0.00 0.00 77 1022.0
20260509150319 7 47 0.0 0.0 0.00 0.00 0.00 77 1022.0
20260509145817 7 47 0.0 0.0 0.00 0.00 0.00 77 1021.9
20260509145317 7 47 0.0 0.0 0.00 0.00 0.00 77 1021.8
20260509144816 7 47 0.0 0.0 0.00 0.00 0.00 76 1021.8
20260509144314 8 47 0.0 0.0 0.00 0.00 0.00 75 1021.9
20260509143813 8 47 0.0 0.0 0.00 0.00 0.00 74 1021.9
20260509143332 8 46 0.0 1.6 0.00 0.00 0.00 74 1021.8
20260509142829 8 47 0.0 1.6 0.00 0.00 0.00 73 1021.9
20260509142327 8 46 0.0 3.2 0.00 0.00 0.00 73 1021.9
20260509141824 9 46 0.0 3.2 0.00 0.00 0.00 72 1021.9
20260509141327 9 55 0.0 4.8 0.00 0.00 0.00 72 1021.9
20260509140821 9 55 3.2 4.8 0.00 0.00 0.00 72 1021.9
20260509140339 9 65 0.0 3.2 0.00 0.00 0.00 70 1021.8
20260509135816 9 155 0.0 0.0 0.00 0.00 0.00 69 1021.8
20260509135314 8 157 0.0 0.0 0.00 0.00 0.00 69 1021.8
20260509134854 8 158 0.0 0.0 0.00 0.00 0.00 70 1021.8
20260509134330 8 162 0.0 0.0 0.00 0.00 0.00 73 1021.8
20260509133828 8 162 0.0 0.0 0.00 0.00 0.00 73 1021.8
20260509133331 8 162 0.0 0.0 0.00 0.00 0.00 73 1021.8
20260509132829 8 162 0.0 0.0 0.00 0.00 0.00 73 1021.7
20260509132349 9 162 0.0 0.0 0.00 0.00 0.00 70 1021.7
20260509131827 9 162 0.0 0.0 0.00 0.00 0.00 69 1021.7
20260509131324 10 162 0.0 0.0 0.00 0.00 0.00 68 1021.7
20260509130822 10 162 0.0 1.6 0.00 0.00 0.00 67 1021.7
20260509130321 10 162 0.0 1.6 0.00 0.00 0.00 66 1021.6
20260509125819 10 69 0.0 3.2 0.00 0.00 0.00 66 1021.6
20260509125317 10 69 0.0 3.2 0.00 0.00 0.00 66 1021.6
20260509124314 10 66 0.0 1.6 0.00 0.00 0.00 67 1021.5
20260509123812 10 209 0.0 1.6 0.00 0.00 0.00 66 1021.5
20260509123331 10 208 0.0 1.6 0.00 0.00 0.00 64 1021.5
20260509122829 10 209 0.0 1.6 0.00 0.00 0.00 65 1021.5
20260509122329 10 209 0.0 1.6 0.00 0.00 0.00 65 1021.4
20260509121827 10 209 0.0 0.0 0.00 0.20 0.00 65 1021.5
20260509121327 10 209 0.0 0.0 0.00 0.20 0.00 64 1021.4
20260509120825 10 209 0.0 1.6 0.00 0.20 0.00 65 1021.4
20260509120323 10 208 0.0 1.6 0.00 0.20 0.00 64 1021.2
20260509115820 10 209 0.0 1.6 0.00 0.20 0.00 64 1021.1
20260509115319 11 209 0.0 1.6 0.00 0.20 0.00 63 1021.0
20260509114817 11 209 0.0 1.6 0.00 0.20 0.00 63 1020.8
20260509114336 11 209 0.0 1.6 0.00 0.20 0.00 62 1020.8
20260509113819 11 207 0.0 3.2 0.00 0.20 0.00 61 1020.8
20260509113317 11 63 0.0 3.2 0.00 0.20 0.00 61 1020.7
20260509112815 11 206 0.0 0.0 0.00 0.20 0.00 61 1020.7
20260509112313 11 206 0.0 0.0 0.00 0.20 0.00 60 1020.6
20260509111832 11 206 0.0 0.0 0.00 0.30 0.00 58 1020.6
20260509111328 11 206 0.0 0.0 0.00 0.30 0.00 58 1020.3
20260509110826 11 206 0.0 0.0 0.00 0.30 0.00 59 1020.3
20260509110324 11 205 0.0 0.0 0.00 0.30 0.00 58 1020.2
20260509105824 12 205 0.0 0.0 0.00 0.30 0.00 57 1020.2
20260509105321 12 204 0.0 0.0 0.00 0.30 0.00 57 1020.0
20260509104820 12 204 0.0 3.2 0.00 0.30 0.00 57 1019.9
20260509104339 12 202 0.0 3.2 0.00 0.30 0.00 56 1019.9
20260509103817 12 63 0.0 1.6 0.00 0.30 0.00 55 1019.9
20260509103315 13 63 0.0 3.2 0.00 0.30 0.00 54 1019.8
20260509102813 13 63 0.0 8.0 0.00 0.30 0.00 53 1019.6
20260509102332 13 54 4.8 8.0 0.00 0.30 0.00 52 1019.4
20260509101829 13 91 0.0 1.6 0.00 2.01 0.00 52 1019.2
20260509101327 13 55 0.0 0.0 0.00 2.01 0.00 50 1019.1
20260509100824 14 54 0.0 3.2 0.00 2.01 0.00 49 1019.0
20260509100323 15 54 0.0 4.8 0.00 2.01 0.00 47 1019.0
20260509095822 15 24 1.6 8.0 0.00 2.01 0.00 46 1018.9
20260509095319 15 68 3.2 8.0 0.00 2.01 0.00 45 1018.8
20260509094821 15 30 0.0 14.5 0.00 2.01 0.00 44 1018.8
20260509094318 15 288 1.6 19.3 0.00 2.01 0.00 44 1018.6
20260509093816 15 77 9.7 19.3 0.00 2.01 0.00 43 1018.5
20260509093314 16 54 3.2 12.9 0.00 2.01 0.00 43 1018.6
20260509092833 16 59 4.8 14.5 0.00 2.01 0.00 42 1018.4
20260509092331 16 81 6.4 14.5 0.00 2.01 0.00 41 1018.3
20260509091829 16 66 1.6 11.3 0.00 2.01 0.00 40 1018.2
20260509091326 16 76 4.8 20.9 0.00 2.01 0.00 40 1018.2
20260509090826 16 215 6.4 20.9 0.00 2.01 0.00 39 1018.0
20260509090325 17 60 4.8 19.3 0.00 2.01 0.00 39 1018.1
20260509085821 17 32 6.4 19.3 0.00 2.01 0.00 38 1018.0
20260509085321 17 90 4.8 16.1 0.00 2.01 0.00 38 1017.9
20260509084818 17 65 4.8 17.7 0.00 2.01 0.00 37 1017.9
20260509084315 17 198 9.7 22.5 0.00 2.01 0.00 37 1017.8
20260509083812 17 201 9.7 22.5 0.00 2.01 0.00 37 1017.7
20260509083331 17 53 4.8 20.9 0.00 2.01 0.00 37 1017.6
20260509082828 17 59 11.3 19.3 0.00 2.01 0.00 37 1017.7
20260509082348 17 100 6.4 20.9 0.00 2.01 0.00 37 1017.5
20260509081825 17 32 4.8 16.1 0.00 2.01 0.00 36 1017.5
20260509081344 17 43 6.4 32.2 0.00 2.01 0.00 35 1017.4
20260509080841 17 50 11.3 32.2 0.00 2.01 0.00 35 1017.4
20260509080319 17 44 9.7 22.5 0.00 2.01 0.00 35 1017.2
20260509075839 17 53 4.8 22.5 0.00 2.01 0.00 36 1017.4
20260509075336 17 169 11.3 22.5 0.00 2.01 0.00 34 1017.3
20260509074815 17 32 9.7 25.7 0.00 2.01 0.00 34 1017.5
20260509074319 17 72 6.4 25.7 0.00 2.01 0.00 34 1017.3
20260509073816 17 27 9.7 25.7 0.00 2.01 0.00 34 1017.2
20260509073315 17 83 12.9 29.0 0.00 2.01 0.00 33 1017.1
20260509072815 17 125 9.7 24.1 0.00 2.01 0.00 34 1017.2
20260509072313 17 44 12.9 25.7 0.00 2.01 0.00 34 1017.1
20260509071831 17 79 12.9 25.7 0.00 2.01 0.00 33 1017.1
20260509071328 17 47 12.9 27.4 0.00 2.01 0.00 34 1017.0
20260509070826 17 139 11.3 27.4 0.00 2.01 0.00 34 1016.9
20260509070324 17 98 12.9 29.0 0.00 2.01 0.00 35 1016.9
20260509065821 17 46 14.5 29.0 0.00 2.01 0.00 34 1016.9
20260509065319 17 57 14.5 24.1 0.00 2.01 0.00 34 1016.9
20260509064817 17 61 8.0 25.7 0.00 2.01 0.00 35 1016.9
20260509064315 17 98 14.5 25.7 0.00 2.01 0.00 34 1016.9
20260509063814 16 15 11.3 25.7 0.00 2.01 0.00 34 1016.9
20260509063312 16 162 11.3 27.4 0.00 2.01 0.00 35 1016.8
20260509062831 16 89 11.3 27.4 0.00 2.01 0.00 36 1016.8
20260509062329 16 46 12.9 33.8 0.00 2.01 0.00 35 1016.8
20260509061826 16 94 17.7 32.2 0.00 2.01 0.00 35 1016.7
20260509061325 16 116 9.7 24.1 0.00 2.01 0.00 36 1016.9
20260509060844 16 63 14.5 25.7 0.00 2.01 0.00 35 1016.8
20260509060320 16 61 14.5 30.6 0.00 2.01 0.00 35 1016.9
20260509055839 16 33 12.9 30.6 0.00 2.01 0.00 35 1016.9
20260509055316 16 48 12.9 25.7 0.00 2.01 0.00 35 1016.9
20260509054836 16 142 8.0 24.1 0.00 2.01 0.00 36 1016.9
20260509054334 16 50 11.3 22.5 0.00 2.01 0.00 35 1017.0
20260509053811 17 72 11.3 22.5 0.00 2.01 0.00 36 1016.9
20260509053330 17 73 6.4 25.7 0.00 2.01 0.00 36 1016.9
20260509052830 16 12 12.9 27.4 0.00 2.01 0.00 36 1017.0
20260509052311 17 28 16.1 27.4 0.00 2.01 0.00 35 1017.0
20260509051832 17 46 11.3 24.1 0.00 2.01 0.00 36 1017.0
20260509051329 16 45 12.9 24.1 0.00 2.01 0.00 37 1017.0
20260509050849 16 57 14.5 24.1 0.00 2.01 0.00 37 1017.1
20260509050327 16 55 11.3 25.7 0.00 2.01 0.00 37 1017.1
20260509045825 17 97 11.3 19.3 0.00 2.01 0.00 38 1017.0
20260509045323 17 346 6.4 20.9 0.00 2.01 0.00 37 1017.1
20260509044823 17 359 6.4 20.9 0.00 2.01 0.00 36 1017.1
20260509044321 17 120 11.3 22.5 0.00 2.01 0.00 35 1017.0
20260509043820 17 30 11.3 27.4 0.00 2.01 0.00 37 1017.2
20260509043318 17 325 8.0 27.4 0.00 2.01 0.00 36 1017.2
20260509042817 17 333 11.3 29.0 0.00 2.01 0.00 36 1017.1
20260509042315 17 21 11.3 25.7 0.00 2.01 0.00 36 1017.1
20260509041812 17 44 14.5 25.7 0.00 2.01 0.00 37 1017.1
20260509041332 17 19 8.0 19.3 0.00 2.01 0.00 38 1017.3
20260509040833 17 5 6.4 20.9 0.00 2.01 0.00 38 1017.1
20260509040313 17 57 9.7 22.5 0.00 2.01 0.00 38 1017.3
20260509035812 17 338 6.4 29.0 0.00 2.01 0.00 37 1017.2
20260509035332 17 80 16.1 29.0 0.00 2.01 0.00 37 1017.1
20260509034851 17 117 8.0 27.4 0.00 2.01 0.00 37 1017.0
20260509034328 17 11 12.9 27.4 0.00 2.01 0.00 36 1017.0
20260509033849 17 306 9.7 22.5 0.00 2.01 0.00 38 1017.0
20260509033326 18 205 12.9 24.1 0.00 2.01 0.00 37 1016.9
20260509032825 18 34 11.3 24.1 0.00 2.01 0.00 37 1016.9
20260509032323 18 336 8.0 17.7 0.00 2.01 0.00 38 1016.9
20260509031842 17 344 8.0 19.3 0.00 2.01 0.00 41 1017.0
20260509031320 17 351 9.7 20.9 0.00 2.01 0.00 43 1017.0
20260509030839 17 303 9.7 20.9 0.00 2.01 0.00 42 1017.0
20260509030336 17 58 12.9 25.7 0.00 2.01 0.00 49 1017.0
20260509025814 17 15 14.5 25.7 0.00 2.01 0.00 51 1017.1
20260509025313 17 18 14.5 25.7 0.00 2.01 0.00 48 1017.0
20260509024832 17 58 6.4 19.3 0.00 2.01 0.00 49 1017.0
20260509024329 17 25 1.6 19.3 0.00 2.01 0.00 50 1017.1
20260509023828 17 186 3.2 19.3 0.00 2.01 0.00 50 1017.3
20260509023327 16 58 4.8 19.3 0.00 2.01 0.00 50 1017.3
20260509022825 16 287 1.6 9.7 0.00 2.01 0.00 52 1017.3
20260509022322 16 209 1.6 12.9 0.00 2.01 0.00 52 1017.3
20260509021820 16 15 6.4 12.9 0.00 2.01 0.00 55 1017.4
20260509021319 16 52 0.0 17.7 0.00 2.01 0.00 56 1017.4
20260509020837 16 117 6.4 20.9 0.00 2.01 0.00 57 1017.5
20260509020314 15 39 8.0 20.9 0.00 2.01 0.00 56 1017.4
20260509015817 15 41 6.4 17.7 0.00 2.01 0.00 57 1017.4
20260509015317 15 86 1.6 17.7 0.00 2.01 0.00 58 1017.6
20260509014815 15 24 3.2 20.9 0.00 2.01 0.00 58 1017.5
20260509014335 15 158 8.0 22.5 0.00 2.01 0.00 57 1017.6
20260509013834 15 73 3.2 29.0 0.00 2.01 0.00 59 1017.6
20260509013333 15 34 9.7 25.7 0.00 2.01 0.00 58 1017.6
20260509012853 15 53 3.2 24.1 0.00 2.01 0.00 58 1017.5
20260509012328 15 104 8.0 27.4 0.00 2.01 0.00 58 1017.7
20260509011827 15 44 4.8 22.5 0.00 2.01 0.00 60 1017.7
20260509011326 14 75 12.9 24.1 0.00 2.01 0.00 59 1017.6
20260509010844 14 53 12.9 24.1 0.00 2.01 0.00 59 1017.7
20260509010344 14 65 8.0 19.3 0.00 2.01 0.00 60 1017.5
20260509005821 14 59 9.7 24.1 0.00 2.01 0.00 62 1017.6
20260509005319 13 338 17.7 24.1 0.00 2.01 0.00 60 1017.6
20260509004325 13 14 6.4 22.5 0.00 2.01 0.00 64 1017.7
20260509003823 13 101 4.8 19.3 0.00 2.01 0.00 64 1017.7
20260509003322 13 51 4.8 20.9 0.00 2.01 0.00 65 1017.7
20260509002820 13 75 8.0 22.5 0.00 2.01 0.00 64 1017.6
20260509002317 13 65 11.3 22.5 0.00 2.01 0.00 64 1017.6
20260509001816 12 13 12.9 27.4 0.00 2.01 0.00 66 1017.4
20260509001335 12 34 12.9 27.4 0.00 2.01 0.00 65 1017.5
20260509000813 12 46 12.9 25.7 0.00 2.01 0.00 66 1017.6
20260509000334 12 221 8.0 25.7 0.00 2.01 0.00 67 1017.4
20260508235853 12 55 16.1 25.7 0.00 2.01 0.00 67 1017.4
20260508235329 12 6 12.9 29.0 0.00 2.01 0.00 68 1017.6
20260508234811 12 229 9.7 29.0 0.00 2.01 0.00 68 1017.6
20260508234331 12 91 12.9 29.0 0.00 2.01 0.00 68 1017.7
20260508233851 12 22 17.7 29.0 0.00 2.01 0.00 67 1017.7
20260508233328 12 82 6.4 29.0 0.00 2.01 0.00 69 1017.8
20260508232825 11 52 17.7 29.0 0.00 2.01 0.00 69 1017.8
20260508232325 11 32 14.5 29.0 0.00 2.01 0.00 70 1017.7
20260508231824 11 207 11.3 30.6 0.00 2.01 0.00 70 1017.5
20260508231322 11 27 11.3 30.6 0.00 2.01 0.00 70 1017.3
20260508230820 11 47 11.3 33.8 0.00 2.01 0.00 71 1017.2
20260508230318 11 18 19.3 33.8 0.00 2.01 0.00 72 1017.3
20260508225817 10 44 17.7 30.6 0.00 2.01 0.00 73 1017.3
20260508225316 10 54 17.7 37.0 0.00 2.01 0.00 73 1017.4
20260508224816 11 59 16.1 37.0 0.00 2.01 0.00 75 1017.3
20260508224336 11 55 14.5 37.0 0.00 2.01 0.00 76 1017.3
20260508223814 11 27 20.9 37.0 0.00 2.01 0.00 73 1017.0
20260508223313 11 90 14.5 30.6 0.00 2.01 0.00 74 1017.0
20260508222832 11 44 14.5 24.1 0.00 2.01 0.00 73 1016.7
20260508222331 11 22 11.3 20.9 0.00 2.01 0.00 73 1016.7
20260508221829 11 6 11.3 20.9 0.00 2.01 0.00 72 1016.5
20260508221328 11 56 9.7 25.7 0.00 2.01 0.00 72 1016.3
20260508220826 11 94 11.3 25.7 0.00 2.01 0.00 72 1016.0
20260508220329 11 6 3.2 16.1 0.00 2.01 0.00 74 1015.7
20260508215828 10 35 6.4 16.1 0.00 2.01 0.00 74 1015.3
20260508215326 10 60 3.2 9.7 0.00 2.01 0.00 76 1015.2
20260508214825 10 67 0.0 3.2 0.00 2.01 0.00 80 1014.8
20260508214323 9 75 1.6 3.2 0.00 2.01 0.00 80 1014.8
20260508213844 9 187 0.0 3.2 0.00 2.01 0.00 82 1014.2
20260508213321 9 204 0.0 4.8 0.00 2.01 0.00 81 1014.3
20260508212819 9 165 0.0 4.8 0.00 2.01 0.00 81 1013.9
20260508212339 8 72 0.0 9.7 0.00 2.01 0.00 81 1013.3
20260508211816 9 158 3.2 9.7 0.00 2.01 0.00 80 1013.6
20260508211315 9 226 0.0 4.8 0.00 2.01 0.00 78 1013.2
20260508210813 10 213 0.0 1.6 0.00 2.01 0.00 77 1013.1
20260508210332 10 62 0.0 3.2 0.00 2.01 0.00 76 1012.8
20260508205831 10 338 1.6 3.2 0.00 2.01 0.00 76 1012.6
20260508205349 10 34 0.0 1.6 0.00 2.01 0.00 75 1012.5
20260508204828 9 34 0.0 3.2 0.00 2.01 0.00 78 1012.3
20260508204347 8 34 0.0 3.2 0.00 2.01 0.00 80 1012.2
20260508203824 8 93 0.0 4.8 0.00 2.01 0.00 84 1012.2
20260508203323 7 171 1.6 4.8 0.00 2.01 0.00 85 1012.2
20260508202825 7 208 0.0 1.6 0.00 2.01 0.00 85 1012.0
20260508202323 7 208 0.0 9.7 0.00 2.01 0.00 85 1012.0
20260508201821 7 42 1.6 12.9 0.00 2.01 0.00 85 1011.8
20260508201319 7 98 3.2 6.4 0.00 2.01 0.00 84 1011.8
20260508200839 7 31 0.0 4.8 0.00 2.01 0.00 82 1011.6
20260508200339 7 349 3.2 4.8 0.00 2.01 0.00 81 1011.5
20260508195816 7 248 0.0 0.0 0.00 2.01 0.00 81 1011.4
20260508195335 7 247 0.0 0.0 0.00 2.01 0.00 81 1011.3
20260508194833 7 243 0.0 4.8 0.00 2.01 0.00 81 1011.1
20260508194353 7 243 0.0 4.8 0.00 2.01 0.00 81 1011.2
20260508193831 7 54 0.0 1.6 0.00 2.01 0.00 81 1011.0
20260508193330 7 55 0.0 9.7 0.00 2.01 0.00 81 1011.1
20260508192829 7 54 3.2 9.7 0.00 2.01 0.00 80 1011.0
20260508192349 7 64 1.6 3.2 0.00 2.01 0.00 78 1011.0
20260508191827 7 213 0.0 0.0 0.00 2.01 0.00 77 1010.8
20260508191346 7 213 0.0 0.0 0.00 2.01 0.00 77 1010.9
20260508190823 8 212 0.0 4.8 0.00 2.01 0.00 76 1010.7
20260508190321 8 212 0.0 6.4 0.00 2.01 0.00 75 1010.5